{"data":{"norad_id":49411,"epoch":"2026-09-20T01:48:27.470880Z","epoch_age_seconds":78002,"freshness":"FRESH","line1":"1 49411U 21104D   26263.07531795 -.00000750  00000+0 -11067-4 0  9995","line2":"2 49411  53.1620  54.0569 0001668  63.5430 296.5743 15.34379177268288","mean_motion":15.34379177,"eccentricity":0.0001668,"inclination_deg":53.162,"raan_deg":54.0569,"arg_perigee_deg":63.543,"mean_anomaly_deg":296.5743,"bstar":-1.1067e-5,"rev_number":26828,"period_min":93.849031685601,"perigee_km":461.62406877579,"apogee_km":463.90619372677,"semimajor_km":6840.9021312513,"source":"CELESTRAK","updated_at":"2026-09-20T09:00:39.255679Z"}}